{"data":{"norad_id":55112,"epoch":"2026-09-21T18:55:51.010176Z","epoch_age_seconds":56866,"freshness":"FRESH","line1":"1 55112U 23001DH  26264.78878484  .00019169  00000+0  65444-3 0  9995","line2":"2 55112  97.5653   0.5276 0006382  16.0541 344.0901 15.30346712159296","mean_motion":15.30346712,"eccentricity":0.0006382,"inclination_deg":97.5653,"raan_deg":0.5276,"arg_perigee_deg":16.0541,"mean_anomaly_deg":344.0901,"bstar":0.00065444,"rev_number":15929,"period_min":94.0963239708,"perigee_km":470.40351908318,"apogee_km":479.15057857511,"semimajor_km":6852.9140488291,"source":"CELESTRAK","updated_at":"2026-09-22T09:00:25.272647Z"}}